This is the latest recevied weather packets stored in our database for station/object N2WH. If no packets are shown the sender has not sent any weather packets the latest 10 day(s).
| Time | Temp. | Humidity | Pressure | Rain* | Wind** | Luminosity | Snow |
|---|---|---|---|---|---|---|---|
| 1777719718 | 8.33° C | 95% | 1013.1 hPa | 0 mm | - | 41 W/m² | - |
| 1777719415 | 8.33° C | 96% | 1012.9 hPa | 0 mm | - | 40 W/m² | - |
| 1777719112 | 8.33° C | 96% | 1012.8 hPa | 0 mm | - | 31 W/m² | - |
| 1777718809 | 8.33° C | 96% | 1012.6 hPa | 0 mm | - | 42 W/m² | - |
| 1777718507 | 7.78° C | 96% | 1012.8 hPa | 0 mm | - | 32 W/m² | - |
| 1777718204 | 7.78° C | 96% | 1012.3 hPa | 0 mm | - | 26 W/m² | - |
| 1777717902 | 7.78° C | 96% | 1012.2 hPa | 0 mm | - | 23 W/m² | - |
| 1777717599 | 7.22° C | 95% | 1012.3 hPa | 0 mm | - | 20 W/m² | - |
| 1777717295 | 7.22° C | 95% | 1012.5 hPa | 0 mm | - | 16 W/m² | - |
| 1777716993 | 7.22° C | 95% | 1012.4 hPa | 0 mm | - | 10 W/m² | - |
| 1777716691 | 7.22° C | 94% | 1012.5 hPa | 0 mm | - | 9 W/m² | - |
| 1777716389 | 7.22° C | 94% | 1012.5 hPa | 0 mm | - | 5 W/m² | - |
| 1777716088 | 7.22° C | 93% | 1012.4 hPa | 0 mm | - | 3 W/m² | - |
| 1777715786 | 7.78° C | 93% | 1012.4 hPa | 0 mm | - | 0 W/m² | - |
| 1777715482 | 7.78° C | 92% | 1012.5 hPa | 0 mm | - | 0 W/m² | - |
| 1777715179 | 7.78° C | 92% | 1012.3 hPa | 0 mm | - | 0 W/m² | - |
| 1777714878 | 8.33° C | 92% | 1012.1 hPa | 0 mm | - | 0 W/m² | - |
| 1777714576 | 8.33° C | 91% | 1012 hPa | 0 mm | - | 0 W/m² | - |
| 1777714273 | 8.33° C | 91% | 1012 hPa | 0 mm | - | 0 W/m² | - |
| 1777713971 | 8.33° C | 91% | 1012.1 hPa | 0 mm | - | 0 W/m² | - |
| 1777713668 | 8.33° C | 90% | 1011.8 hPa | 0 mm | - | 0 W/m² | - |
| 1777713364 | 8.33° C | 90% | 1011.8 hPa | 0 mm | - | 0 W/m² | - |
| 1777713061 | 8.33° C | 90% | 1012 hPa | 0 mm | - | 0 W/m² | - |
| 1777712758 | 8.89° C | 90% | 1012.2 hPa | 0 mm | - | 0 W/m² | - |
| 1777712456 | 8.89° C | 89% | 1012.3 hPa | 0 mm | - | 0 W/m² | - |
* Rain latest hour (hover to see other rain measurements)
** Current wind speed in m/s (hover to see current wind gust speed)